Weather Roundup
Issued by NWS Chicago, IL

Home | Current Version | Previous Version | Graphics & Text | Print | Product List | Glossary On
Versions: 1 2 3 4 5 6 7 8 9 10 11 12 13 14 15 16 17 18 19 20 21 22 23 24 25 26 27 28 29 30 31 32 33 34 35 36 37 38 39 40 41 42 43 44 45 46 47 48 49 50
000
NZUS59 KLOT 230004
HRRLOT

CHICAGO AREA WEATHER ROUNDUP
NATIONAL WEATHER SERVICE CHICAGO/ROMEOVILLE IL
700 PM CDT SUN OCT 22 2017

NOTE: "FAIR" INDICATES FEW OR NO CLOUDS BELOW 12,000 FEET WITH NO
SIGNIFICANT WEATHER AND/OR OBSTRUCTIONS TO VISIBILITY.

* THESE STATIONS ARE NOT UNDER NWS QUALITY CONTROL. THEY ALSO MAY NOT
  REPORT WEATHER SUCH AS PRECIPITATION OR FOG.

ILZ005-006-012>014-019>023-230100-
NORTHEAST ILLINOIS

CITY           SKY/WX    TMP DP  RH WIND       PRES   REMARKS
OHARE          LGT RAIN  53  50  89 N7        30.04S
6HR MIN TEMP:  52; 6HR MAX TEMP:  70; 6HR PCP:  0.17;

MIDWAY         DRIZZLE   53  52  96 N10       30.05R FOG
6HR MIN TEMP:  52; 6HR MAX TEMP:  72; 6HR PCP:  0.13;

AURORA         CLOUDY    52  50  93 N5        30.06R
6HR MIN TEMP:  52; 6HR MAX TEMP:  65; 6HR PCP:  0.12;

LANSING*       DRIZZLE   52  52 100 N8        30.05R
JOLIET*        CLOUDY    53  52  97 N8        30.05S
WAUKEGAN       LGT RAIN  51  50  96 VRB5      30.04R FOG
6HR MIN TEMP:  50; 6HR MAX TEMP:  67;

DUPAGE AIRPORT CLOUDY    51  50  96 N9        30.04S
6HR MIN TEMP:  50; 6HR MAX TEMP:  66; 6HR PCP:  0.11;

WHEELING       CLOUDY    53  52  96 N5        30.06R
6HR MIN TEMP:  52; 6HR MAX TEMP:  70; 6HR PCP:  0.23;

KANKAKEE*      CLOUDY    53  51  94 N13       30.04S
MORRIS*        CLOUDY    51  50  93 N3        30.03F
LEWIS AIRPORT* CLOUDY    51  50  96 NE10      30.04F
NORTHERLY ISL    N/A     53  50  89 NW17        N/A
$$

WIZ051-052-058>065-066-070>072-230100-
SOUTHEAST WISCONSIN

CITY           SKY/WX    TMP DP  RH WIND       PRES   REMARKS
MILWAUKEE      RAIN      52  50  93 CALM      30.06R FOG
6HR MIN TEMP:  52; 6HR MAX TEMP:  66; 6HR PCP:  0.30;

KENOSHA*       LGT RAIN  51  48  89 N6        30.06R
RACINE*        LGT RAIN  51  50  96 N5        30.07R
WAUKESHA       CLOUDY    48  46  93 NW2       30.06R
WEST BEND      LGT RAIN  46  46 100 CALM      30.05R
$$

INZ001>003-010>013-019-020-230100-
NORTHWEST INDIANA

CITY           SKY/WX    TMP DP  RH WIND       PRES   REMARKS
GARY*          LGT RAIN  54  52  94 N14       30.05R
MICHIGAN CITY* NOT AVBL
RENSSELAER*    NOT AVBL
VALPARAISO     CLOUDY    55  54  96 NW8       30.03R
$$

LMZ740>746-230100-
SOUTHERN LAKE MICHIGAN

STATION/POSITION TIME  SKY/WX   TEMP WIND        PRES    VSBY
                                AIR  DIR/SP/G
                 (UTC)          (F)  (DEG/KT/KT) (MB)    (MI)
HARRISON CRIB    2340            53  350/ 18/ 20   N/A
BURNHAM HARBOR   0000            53  330/ 13/ 16   N/A
CALUMET HARBOR   2330            53  340/ 17/ 23 1016.7R
BURNS HARBOR     2340            54  360/ 15/ 19 1017.6R
MICHIGAN CITY    2340            54  330/ 20/ 21   N/A
$$

ABBREVIATIONS USED IN REMARKS
   TC - TEMPERATURE IN CELSIUS
  WCI - WIND CHILL INDEX
   HX - HEAT INDEX
  VSB - VISIBILITY
$$



USA.gov is the U.S. government's official web portal to all federal, state and local government web resources and services.